Retour au catalogue

DELTA 1 DEB

ActifSSO
NORAD 7140·DEBRIS·🇺🇸 United States

Lancé Nov 6, 1973 depuis Vandenberg Space Force Base

Loading…

Prochains Passages (prochaines 24 heures)

TLE

FraisSource: Space-Track

Époque: Sep 14, 2026, 11:22 UTC

1 07140U 73086DE  26257.47418727 -.00000018  00000-0  22479-3 0  9995
2 07140 102.4341 247.8827 0019803 198.8341 315.0790 12.36339487383681

Suivez DELTA 1 DEB en temps réel avec AllMySat

Download on the App Store